Regional Weather Roundup
Issued by NWS

Home | Current Version | Previous Version | Text Only | Print | Product List | Glossary On
Versions: 1 2 3 4 5 6 7 8 9 10 11 12 13 14 15 16 17 18 19 20 21 22 23 24 25 26 27 28 29 30 31 32 33 34 35 36 37 38 39 40 41 42 43 44 45 46 47 48 49 50
000
ASUS45 KABQ 011910
RWRNM
NEW MEXICO REGIONAL WEATHER ROUNDUP
NATIONAL WEATHER SERVICE ALBUQUERQUE NM
1200 PM MST WED MAR 01 2017

NOTE: "FAIR" MEANS FEW OR NO CLOUDS BELOW 12,000 FEET AGL WITH NO
       SIGNIFICANT WEATHER OR OBSTRUCTIONS TO VISION.

      THIS PRODUCT IS RELEASED AS TWO VERSIONS.  ONE VERSION NEAR
      THE TOP OF THE HOUR CONTAINING PRELIMINARY DATA FROM ALBUQUERQUE
      AND OTHER STATIONS.  A FINAL VERSION WITH ADDITIONAL DATA IS
      ISSUED ABOUT 10 MINUTES AFTER THE HOUR.

NMZ501-503-504-510>518-012000-
NORTHWEST PLATEAU/NORTHCENTRAL MOUNTAINS

CITY           SKY/WX    TMP DP  RH WIND       PRES   REMARKS
FARMINGTON     FAIR      35  15  44 N8        30.37S WCI  29
LOS ALAMOS     FAIR      33   4  29 NE9G17    30.30S WCI  26
SANTA FE       FAIR      41   6  23 N15G23    30.28F
TAOS           FAIR      32   7  34 NW9       30.31F WCI  24
ANGEL FIRE     FAIR      28  12  49 CALM      30.27S

$$
NMZ402-403-502-505>509-012000-
WESTCENTRAL MOUNTAINS/SOUTHWEST MOUNTAINS

CITY           SKY/WX    TMP DP  RH WIND       PRES   REMARKS
GALLUP         FAIR      33  14  45 VRB3      30.38F
GRANTS         FAIR      37   8  29 NW17G28   30.36F WCI  27
SILVER CITY    FAIR      50  15  24 SE8       30.31S

$$
NMZ407-409-411-412-012000-
SOUTHERN DESERTS

CITY           SKY/WX    TMP DP  RH WIND       PRES   REMARKS
DEMING         FAIR      56  19  23 E5        30.29F
LAS CRUCES     FAIR      56  20  25 N6        30.30F
HOLLOMAN AFB   FAIR      56  18  22 N13       30.32F
ALAMOGORDO     FAIR      55  16  21 NW14      30.29F
T OR C         FAIR      52  21  29 VRB3      30.30F

$$
NMZ519>523-012000-
CENTRAL VALLEYS/CENTRAL HIGHLANDS

CITY           SKY/WX    TMP DP  RH WIND       PRES   REMARKS
ALBUQUERQUE    FAIR      43   0  16 NW12G22   30.33F
DOUBLE EAGLE   SUNNY     36   3  25 NW16G24   30.32F WCI  26
MORIARTY ARPT  FAIR      45   3  17 NW7G16    30.29S
CLINES CORNERS FAIR      40   5  23 NW16G25   30.27F WCI  31
BELEN          FAIR      46   7  20 NW5       30.33F
SOCORRO        FAIR      49  13  23 N12G21    30.31F

$$
NMZ524>526-539-540-012000-
SOUTHCENTRAL MOUNTAINS

CITY           SKY/WX    TMP DP  RH WIND       PRES   REMARKS
RUIDOSO        FAIR      46  12  25 N10G16    30.30F

$$
NMZ527>531-012000-
NORTHEAST HIGHLANDS/NORTHEAST PLAINS

CITY           SKY/WX    TMP DP  RH WIND       PRES   REMARKS
LAS VEGAS      FAIR      40  10  29 MISG      30.24F
RATON          FAIR      42   9  25 S9        30.22F
CLAYTON        FAIR      47  19  33 S15       30.27F

$$
NMZ532>537-012000-
EASTCENTRAL PLAINS

CITY           SKY/WX    TMP DP  RH WIND       PRES   REMARKS
TUCUMCARI      FAIR      51  20  29 S9        30.28F
CANNON AFB     FAIR      49  19  30 SE8       30.29F
CLOVIS AIRPORT FAIR      48  19  32 SE8       30.30F

$$
NMZ028-029-538-012000-
SOUTHEAST PLAINS

CITY           SKY/WX    TMP DP  RH WIND       PRES   REMARKS
ROSWELL        FAIR      58  19  22 VRB5      30.29
ARTESIA        FAIR      55  23  28 NE6       30.29F
CARLSBAD       FAIR      58  21  24 NE9       30.28F
HOBBS          SUNNY     54  18  24 NE6       30.30F


$$



USA.gov is the U.S. government's official web portal to all federal, state and local government web resources and services.